Time[GMT],air_temperature[C](-3m),wind_speed[m/s](-4m),wind_gust[m/s](-4m),visibility[m](-3m),barometric_pressure[millibars](-3m),wind_direction[degrees_true](-4m)
2005-10-11 20:00,12.4,8.0,10.3,2957,1021.28,31.00
2005-10-11 21:00,12.3,8.2,10.0,2957,1021.46,30.99
2005-10-11 22:00,12.2,8.2,9.8,2957,1022.13,38.84
2005-10-11 23:00,11.9,8.2,10.1,2957,1023.30,30.83
2005-10-12 00:00,11.4,9.4,11.2,2957,1023.85,31.03
2005-10-12 01:00,11.4,9.4,11.2,2957,1024.58,35.88
2005-10-12 02:00,11.4,9.6,11.8,2957,1025.50,37.20
2005-10-12 03:00,11.2,9.4,12.1,2957,1026.11,49.30
2005-10-12 04:00,11.1,10.0,12.0,2957,1026.42,62.60
2005-10-12 05:00,11.0,10.8,13.1,2957,1026.60,59.60
2005-10-12 06:00,10.9,11.2,12.7,2957,1026.78,61.90
2005-10-12 07:00,10.9,10.4,12.6,2957,1026.78,62.30
2005-10-12 08:00,11.0,9.8,12.2,2956,1026.48,57.20
2005-10-12 09:00,10.7,9.6,12.0,2957,1027.39,48.57
2005-10-12 10:00,10.6,8.5,10.8,2957,1027.70,51.36
2005-10-12 11:00,10.2,9.0,10.4,2957,1028.31,45.98
2005-10-12 12:00,10.2,9.2,11.3,2957,1029.41,47.51
2005-10-12 13:00,10.2,9.5,11.3,2956,1029.78,47.79
2005-10-12 14:00,10.8,9.9,12.1,2959,1030.15,59.10
2005-10-12 15:00,10.8,10.6,12.9,2951,1030.02,60.90
2005-10-12 16:00,10.7,10.2,12.9,2597,1030.33,62.90
2005-10-12 17:00,10.9,10.6,12.4,2825,1029.96,58.00
2005-10-12 18:00,11.1,11.4,14.9,2934,1030.45,62.40
2005-10-12 19:00,11.1,10.4,12.3,2945,1029.84,61.90
2005-10-12 20:00,11.2,10.8,13.1,2759,1030.02,68.50
2005-10-12 21:00,11.4,10.7,13.0,2954,1030.82,67.10
2005-10-12 22:00,11.4,9.4,11.0,2956,1030.51,64.80
2005-10-12 23:00,11.6,9.9,11.6,2957,1030.82,68.50
2005-10-13 00:00,11.7,7.7,9.8,2957,1030.64,68.30
2005-10-13 01:00,11.9,7.9,10.4,2950,1030.33,65.80
2005-10-13 02:00,11.8,7.6,9.2,2941,1030.15,66.70
2005-10-13 03:00,11.9,6.7,8.5,2954,1030.27,67.10
2005-10-13 04:00,11.8,6.4,8.0,2956,1030.33,66.00
2005-10-13 05:00,11.9,6.5,7.8,2957,1030.33,67.00
2005-10-13 06:00,11.8,7.4,8.7,2957,1030.09,60.80
2005-10-13 07:00,12.5,8.1,10.8,2957,1029.78,78.50
2005-10-13 08:00,12.4,8.6,10.0,2957,1029.78,69.00
2005-10-13 09:00,12.2,8.4,10.2,2957,1029.35,63.50
2005-10-13 10:00,11.8,8.9,10.4,2957,1028.98,57.00
2005-10-13 11:00,11.4,9.8,11.3,2948,1029.11,55.70
2005-10-13 12:00,11.2,9.7,11.8,2943,1029.05,55.00
2005-10-13 13:00,11.1,9.7,12.2,2888,1029.72,60.50
2005-10-13 14:00,11.1,9.9,11.7,2889,1029.78,63.70
2005-10-13 15:00,11.4,9.6,11.2,2897,1029.23,62.50
2005-10-13 16:00,11.7,8.4,10.7,2823,1029.29,65.00
2005-10-13 17:00,11.9,8.4,10.7,2837,1028.74,65.10
2005-10-13 18:00,12.0,8.3,9.7,2915,1028.37,63.60
2005-10-13 19:00,12.0,8.9,10.6,2895,1027.94,72.90
2005-10-13 20:00,12.2,8.7,10.0,2945,1027.58,76.50
2005-10-13 21:00,12.3,8.4,10.3,2938,1027.39,72.30
2005-10-13 22:00,12.2,8.1,9.6,2934,1027.27,72.60
2005-10-13 23:00,12.0,8.2,9.7,2940,1027.09,69.00
2005-10-14 00:00,11.8,8.1,10.1,2890,1026.72,65.10
2005-10-14 02:00,11.7,8.7,10.4,2919,1026.17,63.80
2005-10-14 03:00,11.8,7.9,10.2,2900,1025.56,60.90
2005-10-14 04:00,11.9,8.2,10.4,2934,1025.01,57.80
2005-10-14 05:00,12.1,8.3,9.9,2951,1024.95,59.50
2005-10-14 06:00,12.1,8.3,10.1,2956,1024.40,59.30
2005-10-14 07:00,12.1,7.4,8.5,2933,1024.03,63.20
2005-10-14 08:00,12.1,7.1,8.4,2839,1023.42,62.40
2005-10-14 09:00,12.1,7.2,8.7,2827,1023.05,58.60
2005-10-14 10:00,12.1,8.0,9.2,2786,1022.56,64.40
2005-10-14 11:00,12.2,8.6,9.8,2784,1021.22,65.10
2005-10-14 12:00,12.2,7.5,9.0,2760,1021.64,55.50
2005-10-14 13:00,12.3,6.9,8.7,2663,1022.07,35.23
2005-10-14 14:00,12.4,6.5,7.9,2751,1021.52,65.90
2005-10-14 15:00,12.4,6.0,7.6,2687,1021.15,53.00
2005-10-14 16:00,12.5,6.5,7.5,2662,1020.73,56.90
2005-10-14 17:00,12.4,6.1,7.3,2658,1019.75,55.20
2005-10-14 18:00,12.5,6.2,7.8,2668,1019.38,55.70
2005-10-14 19:00,12.4,7.0,8.4,2680,1018.89,58.70
2005-10-14 20:00,12.4,6.9,8.4,2713,1018.28,55.50
2005-10-14 21:00,12.5,7.2,8.8,2777,1017.42,63.30
2005-10-14 22:00,12.5,8.2,10.1,2775,1016.75,73.20
2005-10-14 23:00,12.7,8.2,10.1,2798,1016.44,80.80
2005-10-15 00:00,12.7,7.4,8.9,2833,1016.26,79.30
2005-10-15 01:00,12.8,7.0,8.8,2787,1015.96,75.10
2005-10-15 02:00,12.6,6.4,7.9,2786,1015.47,61.40
2005-10-15 03:00,12.7,7.0,9.0,2769,1013.75,72.30
2005-10-15 04:00,12.8,8.2,9.6,2028,1012.65,78.50
2005-10-15 05:00,12.7,7.6,9.1,2525,1012.22,72.80
2005-10-15 06:00,12.6,7.1,8.4,2749,1011.55,58.80
2005-10-15 07:00,12.6,7.4,8.8,2703,1010.14,62.20
2005-10-15 08:00,12.6,5.4,6.6,2512,1009.84,28.73
2005-10-15 09:00,12.6,7.4,9.1,1749,1008.06,62.40
2005-10-15 10:00,12.6,6.4,7.6,1541,1007.27,64.70
2005-10-15 11:00,12.5,5.5,6.5,1812,1007.33,44.86
2005-10-15 12:00,12.5,7.0,8.6,2158,1005.86,56.80
2005-10-15 13:00,12.8,7.3,8.9,2487,1003.41,71.50
2005-10-15 14:00,13.4,10.5,13.0,2545,1001.33,83.50
2005-10-15 15:00,13.4,8.4,10.8,2569,1000.36,78.40
2005-10-15 16:00,13.2,7.2,8.6,2655,999.01,69.10
2005-10-15 17:00,12.7,8.4,10.1,2435,997.11,50.18
2005-10-15 18:00,12.7,9.1,11.1,2385,994.42,55.60
2005-10-15 19:00,12.6,9.0,11.1,1613,993.14,55.00
2005-10-15 20:00,12.6,8.2,10.1,2156,992.46,54.50
2005-10-15 21:00,12.6,8.1,9.4, 887,991.85,80.80
2005-10-15 22:00,12.5,6.4,7.7,1984,991.06,77.40
2005-10-15 23:00,12.4,4.5,6.3,1150,989.96,1.49
2005-10-16 00:00,12.8,4.7,6.1,1049,988.86,318.40
2005-10-16 01:00,12.7,7.3,9.5, 958,987.51,298.70
2005-10-16 02:00,11.5,12.1,14.7, 703,987.20,294.00
2005-10-16 03:00,11.5,11.9,14.8,2739,986.90,275.60
2005-10-16 04:00,11.5,11.0,13.8,2898,986.47,282.90
2005-10-16 05:00,11.6,11.0,13.4,2025,986.78,277.70
2005-10-16 06:00,11.6,11.8,16.0,2215,986.65,262.30
2005-10-16 07:00,11.9,12.3,16.1,2699,986.41,262.30
2005-10-16 08:00,11.9,11.3,14.3,2706,986.35,261.60
2005-10-16 09:00,12.2,11.6,14.0,2846,985.98,264.80
2005-10-16 10:00,12.1,13.0,16.7,2892,985.92,260.10
2005-10-16 11:00,12.2,14.2,17.4,2945,985.12,256.40
2005-10-16 12:00,12.1,13.2,16.5,2913,985.37,256.40
2005-10-16 13:00,12.0,12.4,14.8,2947,985.12,255.60
2005-10-16 14:00,12.1,12.5,16.0,2816,985.25,264.60
2005-10-16 15:00,12.1,13.1,16.4,2822,984.88,260.40
2005-10-16 16:00,12.1,13.6,17.2,2623,984.70,260.40
2005-10-16 17:00,11.9,12.1,15.7,2348,985.00,270.60
2005-10-16 18:00,12.0,12.8,15.4,2830,985.43,264.30
2005-10-16 19:00,12.4,12.7,15.5,2894,984.88,260.30
2005-10-16 20:00,12.5,12.0,14.6,2900,985.06,269.70
2005-10-16 21:00,12.2,11.3,14.0,2465,985.92,279.20
2005-10-16 22:00,11.5,11.0,14.8,2852,986.78,279.20
2005-10-16 23:00,11.1,10.7,12.9,2047,987.45,267.10
2005-10-17 00:00,11.1,10.0,13.1,2957,987.20,261.60
2005-10-17 01:00,11.3,10.8,13.2,2877,987.33,265.10
2005-10-17 02:00,11.7,11.4,13.8,2865,987.45,266.40
2005-10-17 03:00,11.9,12.2,14.8,2804,987.45,260.80
2005-10-17 04:00,11.8,11.1,13.5,2957,987.82,265.70
2005-10-17 05:00,11.8,9.8,11.9,2957,988.86,285.70
2005-10-17 06:00,11.6,8.9,11.2,2957,989.90,288.80
2005-10-17 07:00,11.5,8.4,11.3,2957,990.63,284.60
2005-10-17 08:00,11.5,9.4,11.4,2957,991.24,279.80
2005-10-17 09:00,11.4,8.8,11.5,2957,991.79,286.40
2005-10-17 10:00,11.5,8.9,10.9,2957,992.04,280.80
2005-10-17 11:00,11.6,8.2,9.9,2957,993.20,281.00
2005-10-17 12:00,11.1,8.2,9.6,2954,993.93,278.30
2005-10-17 13:00,11.7,8.2,10.4,2731,994.54,289.20
2005-10-17 14:00,11.9,9.3,11.1,2874,994.91,300.50
2005-10-17 15:00,12.0,9.7,12.5,2923,994.73,298.00
2005-10-17 16:00,12.2,8.9,10.9,2917,995.46,305.40
2005-10-17 17:00,12.6,9.2,10.9,2785,995.52,296.00
2005-10-17 18:00,12.8,8.6,10.0,2958,996.20,296.20
2005-10-17 19:00,12.6,8.9,11.3,2954,996.93,290.20
2005-10-17 20:00,12.5,10.3,13.2,2941,997.54,295.10
2005-10-17 21:00,12.1,10.8,13.9,2957,998.77,292.10
2005-10-17 22:00,12.0,9.5,11.4,2957,999.44,294.40
2005-10-17 23:00,11.6,11.2,14.2,2957,1000.17,291.30
2005-10-18 00:00,11.3,9.6,11.8,2957,1001.03,286.90
2005-10-18 01:00,11.0,9.1,10.6,2957,1001.03,289.40
2005-10-18 02:00,10.9,9.0,10.9,2957,1001.27,290.10
2005-10-18 03:00,10.7,8.4,10.1,2957,1001.27,284.60
2005-10-18 04:00,10.6,7.8,9.3,2957,1001.40,285.40
2005-10-18 05:00,10.6,7.7,9.3,2957,1001.40,283.20
2005-10-18 06:00,10.6,7.8,9.4,2957,1002.01,274.90
2005-10-18 07:00,10.7,6.8,8.6,2957,1001.95,260.40
2005-10-18 08:00,10.7,6.4,7.5,2957,1001.64,248.40
2005-10-18 09:00,10.6,5.7,6.7,2957,1001.40,246.70
2005-10-18 10:00,10.4,6.4,7.9,2957,1001.40,247.00
2005-10-18 11:00,10.5,5.9,7.5,1928,1001.03,244.60
2005-10-18 12:00,10.7,7.0,8.4,2957,1001.40,250.70
2005-10-18 13:00,10.8,6.1,7.2,2957,1000.91,250.90
2005-10-18 14:00,10.8,6.9,8.4,2957,1000.48,252.00
2005-10-18 15:00,11.1,7.9,10.1,2958,1000.05,244.90
2005-10-18 16:00,10.9,7.2,8.9,2954,999.81,248.60
2005-10-18 17:00,11.1,7.6,9.5,2956,999.19,243.20
2005-10-18 18:00,11.2,5.9,7.1,2945,998.64,244.00
2005-10-18 19:00,11.3,6.9,8.5,2955,998.70,247.00
2005-10-18 20:00,11.3,6.0,7.6,2221,998.34,254.70
2005-10-18 21:00,11.1,6.5,7.8,2956,999.01,269.80
2005-10-18 22:00,11.1,3.5,5.3,2957,999.38,268.20
2005-10-18 23:00,11.3,2.6,3.0,2957,999.93,259.00
2005-10-19 00:00,11.6,2.2,2.7,2957,1000.29,261.30
2005-10-19 01:00,11.8,3.5,4.1,2957,1000.78,269.90
2005-10-19 02:00,11.7,3.3,3.8,2957,1001.33,260.20
2005-10-19 03:00,11.7,4.5,5.2,2957,1001.76,261.00
2005-10-19 04:00,11.6,5.2,6.2,2957,1002.25,269.50
2005-10-19 05:00,11.6,4.7,6.1,2957,1003.05,271.40
2005-10-19 06:00,11.5,5.4,6.3,2957,1004.09,280.60
2005-10-19 07:00,11.4,4.8,5.9,2957,1004.82,270.40
2005-10-19 08:00,11.2,2.5,3.4,2957,1004.88,273.70
2005-10-19 09:00,11.3,4.9,5.9,2957,1006.17,269.10
2005-10-19 10:00,11.3,4.4,5.1,2957,1006.78,267.20
2005-10-19 11:00,11.4,4.7,5.4,2957,1007.76,269.90
2005-10-19 12:00,11.9,6.1,8.9,2957,1008.19,296.00
2005-10-19 14:00,11.8,4.0,4.9,2956,1009.16,259.20
2005-10-19 15:00,11.7,3.2,4.0,2956,1008.19,248.40
2005-10-19 16:00,11.7,4.8,5.6,2948,1007.88,252.10
2005-10-19 17:00,11.8,3.7,4.5,2865,1006.72,215.40
2005-10-19 18:00,11.9,4.2,5.3,2958,1006.11,211.60
2005-10-19 19:00,12.0,5.7,7.2,2957,1005.68,220.70
2005-10-19 20:00,12.2,5.8,7.1,2733,1005.56,235.10
2005-10-19 21:00,12.2,5.6,6.9,2957,1005.86,228.10
2005-10-19 22:00,12.1,4.8,5.9,2957,1004.52,192.50
2005-10-19 23:00,12.3,6.2,7.7,2957,1004.15,199.70
2005-10-20 00:00,12.5,5.1,6.0,2957,1003.54,201.10
2005-10-20 01:00,13.0,9.7,12.4,2956,1002.80,212.20
2005-10-20 02:00,13.3,11.0,13.1,2950,1002.31,220.60
2005-10-20 03:00,13.4,11.2,13.3,2950,1001.33,225.30
2005-10-20 04:00,13.4,11.3,14.0,2954,1001.52,238.90
2005-10-20 05:00,13.4,11.3,13.4,2957,1003.54,272.60
2005-10-20 06:00,12.6,7.6,9.9,2957,1004.58,289.80
2005-10-20 07:00,11.5,10.7,12.9,2957,1005.86,306.70
2005-10-20 08:00,10.3,11.9,14.4,2957,1007.02,313.20
2005-10-20 09:00,9.2,11.9,14.8,2889,1008.37,302.20
2005-10-20 10:00,8.6,11.4,13.7,2957,1009.16,309.50
2005-10-20 11:00,8.4,10.5,13.2,2957,1009.35,307.40
2005-10-20 12:00,8.1,9.3,10.9,2957,1010.02,302.00
2005-10-20 13:00,8.3,10.3,12.1,2956,1010.88,302.10
2005-10-20 14:00,8.4,10.5,12.8,2853,1011.31,297.80
2005-10-20 15:00,8.9,8.7,10.4,2882,1011.31,298.40
2005-10-20 16:00,9.3,6.9,8.2,2790,1011.12,305.60
2005-10-20 17:00,9.9,6.8,8.7,2564,1010.76,302.90
2005-10-20 18:00,10.6,7.2,8.9,2885,1010.82,298.30
2005-10-20 19:00,11.1,8.4,10.9,2775,1011.00,296.50
2005-10-20 20:00,11.2,8.8,10.7,2926,1011.43,290.10
2005-10-20 21:00,11.3,9.8,11.7,2620,1012.35,304.90
2005-10-20 22:00,11.1,6.5,8.9,2957,1012.84,301.60
2005-10-20 23:00,10.8,6.8,8.1,2957,1013.57,293.60
2005-10-21 00:00,10.6,6.9,8.4,2957,1014.06,298.80
2005-10-21 01:00,10.2,7.2,8.7,2957,1014.85,297.50
2005-10-21 02:00,9.8,7.4,8.7,2957,1015.34,314.20
2005-10-21 03:00,9.5,5.9,7.1,2957,1015.22,313.70
2005-10-21 04:00,9.5,6.2,7.7,2957,1015.53,308.30
2005-10-21 05:00,9.2,6.4,7.9,2957,1015.77,307.10
2005-10-21 06:00,9.0,6.1,8.4,2957,1015.59,309.90
2005-10-21 07:00,8.6,6.7,8.4,2957,1015.34,315.40
2005-10-21 08:00,8.1,6.0,7.6,2957,1015.40,308.10
2005-10-21 09:00,8.0,5.7,7.1,2957,1015.65,309.90
2005-10-21 10:00,7.8,4.3,5.3,2957,1015.89,298.70
2005-10-21 11:00,7.6,5.3,6.7,2957,1016.32,301.60
2005-10-21 12:00,8.0,6.7,8.7,1080,1016.63,316.80
2005-10-21 13:00,7.8,6.5,8.0,2475,1016.69,305.80
2005-10-21 14:00,7.7,5.9,7.4,2813,1016.44,313.80
2005-10-21 15:00,7.8,4.7,6.8,2958,1015.96,297.10
2005-10-21 16:00,8.7,5.3,7.2,2752,1015.53,300.00
2005-10-21 17:00,9.3,5.6,7.1,2777,1014.61,309.40
2005-10-21 18:00,10.1,4.7,5.9,2852,1014.43,310.40
2005-10-21 19:00,11.0,3.5,5.7,2460,1014.36,313.60
2005-10-21 20:00,11.4,4.7,7.3,2438,1014.18,323.00
2005-10-21 21:00,11.3,7.0,8.6,2680,1014.49,332.40
2005-10-21 22:00,10.9,6.0,7.4,2957,1015.28,347.67
2005-10-21 23:00,10.2,6.7,7.9,2957,1015.65,346.70
2005-10-22 00:00,9.6,7.2,8.5,2957,1015.83,347.06
2005-10-22 01:00,8.7,7.3,8.8,2957,1016.57,8.67
2005-10-22 02:00,7.8,6.2,7.5,2957,1016.75,11.84
2005-10-22 03:00,7.4,6.1,8.3,2957,1016.63,9.85
2005-10-22 04:00,7.1,5.0,7.4,2957,1016.75,19.38
2005-10-22 05:00,6.9,4.2,5.7,2957,1016.44,350.04
2005-10-22 06:00,6.5,3.5,4.7,2957,1016.20,350.96
2005-10-22 08:00,6.8,3.8,5.1,2957,1015.47,344.03
2005-10-22 09:00,6.6,3.2,4.5,2957,1015.53,352.18
2005-10-22 10:00,6.5,3.2,4.5,2957,1015.65,356.01
2005-10-22 11:00,6.5,3.3,4.3,2957,1015.47,7.76
2005-10-22 12:00,6.9,3.9,4.9,2957,1015.65,16.66
2005-10-22 13:00,7.6,2.7,3.5,2958,1015.53,16.35
2005-10-22 14:00,7.7,1.7,2.9,2958,1015.65,40.53
2005-10-22 15:00,7.3,1.3,2.3,2958,1015.28,63.80
2005-10-22 16:00,7.9,1.0,2.2,2956,1014.85,86.80
2005-10-22 17:00,8.0,0.3,1.3,2958,1014.06,96.70
2005-10-22 18:00,7.9,1.3,2.3,2953,1013.75,78.50
2005-10-22 19:00,8.1,2.3,3.1,2958,1012.90,73.60
2005-10-22 20:00,8.1,2.6,3.6,2958,1012.35,79.70
2005-10-22 21:00,8.4,3.4,4.5,2957,1012.10,88.00
2005-10-22 22:00,8.5,3.7,4.9,2957,1012.04,81.30
2005-10-22 23:00,8.7,3.6,4.6,2957,1011.98,82.70
2005-10-23 00:00,8.9,4.6,5.8,2957,1011.37,75.60
2005-10-23 01:00,9.1,5.4,6.9,2957,1011.12,73.20
2005-10-23 02:00,9.4,7.6,9.2,2952,1010.02,78.90
2005-10-23 03:00,9.5,8.0,10.5,2939,1009.04,82.30
2005-10-23 04:00,9.3,7.7,9.8,1730,1008.12,90.20
2005-10-23 05:00,9.4,9.6,12.1,2880,1006.11,78.90
2005-10-23 06:00,8.9,11.1,13.7,1193,1005.13,87.30
2005-10-23 07:00,9.1,11.4,14.3,2375,1003.41,85.60
2005-10-23 08:00,8.8,13.9,17.8,2495,1001.03,86.70
2005-10-23 09:00,8.5,13.1,18.5, 690,1000.17,74.10
2005-10-23 10:00,9.0,14.1,19.5,1407,998.58,80.50
2005-10-23 11:00,9.3,14.7,17.7,1639,998.15,72.60
2005-10-23 12:00,9.5,14.9,19.0, 773,998.34,67.10
2005-10-23 13:00,9.8,13.4,16.8,1523,996.87,59.60
2005-10-23 14:00,9.4,13.8,17.4, 994,997.17,56.00
2005-10-23 15:00,8.4,12.5,15.6,2005,998.09,28.99
2005-10-23 16:00,7.5,13.3,16.4,1446,998.70,20.49
2005-10-23 17:00,6.4,12.1,15.7,2161,999.74,14.17
2005-10-23 18:00,6.7,12.1,15.2,2889,1000.36,9.30
2005-10-23 19:00,6.7,10.8,13.7,2336,1001.89,11.24
2005-10-23 20:00,6.4,10.6,13.0,2107,1003.17,6.59
2005-10-23 21:00,6.4,9.7,12.6,2172,1004.58,6.68
2005-10-23 22:00,6.8,9.1,11.4,2876,1006.23,1.95
2005-10-23 23:00,7.0,8.3,9.7,2763,1007.64,0.74
2005-10-24 00:00,6.9,8.4,11.1,2736,1008.80,1.15
2005-10-24 01:00,7.0,9.3,11.3,2890,1009.65,8.50
2005-10-24 02:00,7.2,8.6,10.8,2877,1010.45,2.40
2005-10-24 03:00,7.3,9.8,12.0,2957,1010.76,10.13
2005-10-24 04:00,7.4,8.3,10.6,2957,1011.18,14.13
2005-10-24 05:00,7.4,7.6,9.6,2957,1012.28,15.97
2005-10-24 06:00,7.3,6.5,7.9,2957,1013.14,8.91
2005-10-24 07:00,7.1,6.9,8.6,2957,1012.96,16.62
2005-10-24 08:00,6.9,6.0,7.2,2957,1013.57,9.58
2005-10-24 09:00,7.3,5.1,6.9,2957,1014.67,14.51
2005-10-24 10:00,7.4,6.6,8.5,2957,1014.73,16.96
2005-10-24 11:00,7.4,6.7,8.0,2957,1015.28,15.74
2005-10-24 12:00,7.3,6.0,7.8,2957,1016.32,26.51
2005-10-24 13:00,7.4,5.2,6.5,2957,1017.24,24.21
2005-10-24 14:00,7.7,6.0,7.5,2957,1017.79,24.96
2005-10-24 15:00,8.1,6.5,7.8,2957,1018.16,49.85
2005-10-24 16:00,8.4,6.1,7.3,2958,1018.16,51.02
2005-10-24 17:00,8.4,6.4,8.0,2957,1017.73,42.84
2005-10-24 18:00,8.4,5.4,6.6,2628,1017.55,51.42
2005-10-24 19:00,8.8,6.2,7.4,2958,1017.30,46.59
2005-10-24 20:00,9.0,6.2,7.4,2957,1017.67,50.29
2005-10-24 21:00,9.9,6.8,8.4,2957,1018.10,71.20
2005-10-24 22:00,10.0,8.9,10.1,2957,1018.52,77.40
2005-10-24 23:00,10.0,8.8,10.6,2957,1018.71,80.60
2005-10-25 00:00,10.0,9.0,10.9,2957,1018.22,75.00
2005-10-25 02:00,9.7,9.0,11.1,2862,1017.18,60.90
2005-10-25 03:00,10.2,9.5,11.5,2957,1016.26,66.40
2005-10-25 06:00,10.0,12.0,14.7,2863,1014.30,72.20
2005-10-25 07:00,9.7,11.9,14.5,1488,1013.94,70.30
2005-10-25 08:00,9.6,12.9,15.4,1601,1012.16,66.50
2005-10-25 09:00,9.6,13.0,16.2,1426,1012.16,66.50
2005-10-25 10:00,9.3,12.9,16.5,1231,1010.88,65.00
2005-10-25 11:00,9.5,13.0,16.0,1397,1009.41,66.70
2005-10-25 12:00,9.0,13.2,15.5,1341,1008.68,57.80
2005-10-25 13:00,9.0,14.2,17.1,1048,1008.86,57.20
2005-10-25 14:00,8.7,14.8,18.1,1044,1006.66,55.80
2005-10-25 15:00,8.4,15.1,17.7,1373,1004.15,49.95
2005-10-25 16:00,8.3,15.0,19.2,1484,1002.19,41.92
2005-10-25 17:00,7.6,14.8,18.9,1534,999.01,33.83
2005-10-25 18:00,6.7,17.4,22.5, 490,997.60,34.44
2005-10-25 19:00,6.7,17.1,21.8, 496,997.11,32.23
2005-10-25 20:00,6.5,15.5,19.0,1000,995.46,31.19
2005-10-25 21:00,6.3,13.4,17.8, 833,995.83,28.66
2005-10-25 22:00,6.0,14.1,17.5,1029,993.93,22.75
2005-10-25 23:00,5.9,13.9,16.1,1853,994.30,23.77
2005-10-26 00:00,5.7,13.3,16.1,2134,992.83,34.47
2005-10-26 01:00,6.2,13.7,17.9,2423,991.91,34.09
2005-10-26 02:00,6.2,13.2,16.4,1982,991.30,31.11
2005-10-26 03:00,6.5,12.2,15.2,1404,990.38,28.47
2005-10-26 04:00,6.5,12.2,14.7,2907,989.10,17.60
2005-10-26 05:00,6.0,10.4,12.6,2191,989.47,355.26
2005-10-26 06:00,5.8,12.3,14.6,2506,989.28,343.17
2005-10-26 07:00,5.7,12.4,15.4,1361,989.10,346.36
2005-10-26 08:00,5.9,12.4,15.7,2626,988.79,353.94
2005-10-26 09:00,6.1,31.0,13.7,,,194.20
2005-10-26 10:00,5.5,10.5,13.0,1667,989.53,342.10
2005-10-26 11:00,5.3,8.8,12.7,2810,990.26,334.60
2005-10-26 12:00,5.2,8.4,10.7,2796,990.94,325.50
2005-10-26 13:00,5.1,9.6,12.1,2592,991.98,311.70
2005-10-26 14:00,5.4,9.9,12.8,2957,992.77,310.50
2005-10-26 15:00,5.6,10.4,12.7,2955,993.38,309.40
2005-10-26 16:00,6.1,10.9,13.9,2954,994.36,313.60
2005-10-26 17:00,6.5,10.1,12.7,2934,995.16,314.90
2005-10-26 18:00,6.8,9.6,11.7,2957,996.20,321.50
2005-10-26 19:00,7.2,11.3,14.0,2889,997.60,318.30
2005-10-26 20:00,7.9,9.7,11.8,2941,998.77,322.50
2005-10-26 21:00,8.2,10.7,13.1,2957,1000.66,332.30
2005-10-26 22:00,8.2,10.2,12.9,2957,1001.82,334.90
2005-10-26 23:00,8.0,10.3,13.1,2957,1003.54,332.20
2005-10-27 00:00,7.6,10.3,13.2,2957,1004.82,329.60
2005-10-27 01:00,7.2,10.3,13.0,2957,1006.11,329.90
2005-10-27 02:00,6.7,9.6,11.9,2957,1007.02,330.40
2005-10-27 03:00,6.6,8.4,10.1,2957,1008.31,328.80
2005-10-27 04:00,6.3,10.1,12.0,2957,1009.53,327.70
2005-10-27 05:00,6.1,8.2,10.1,2957,1010.57,322.90
2005-10-27 06:00,6.3,7.3,8.6,2957,1011.06,312.50
2005-10-27 07:00,6.3,6.6,8.8,2957,1011.73,310.10
2005-10-27 08:00,6.3,7.1,8.7,2957,1012.28,316.90
2005-10-27 09:00,6.2,8.0,9.2,2957,1012.90,310.60
2005-10-27 10:00,6.1,8.1,10.0,2957,1013.51,320.70
2005-10-27 11:00,6.0,7.8,9.5,2957,1014.36,315.90
2005-10-27 12:00,6.3,8.2,9.9,2957,1015.65,319.00
2005-10-27 13:00,6.3,7.5,9.0,2957,1016.38,318.10
2005-10-27 14:00,6.7,7.8,9.4,2948,1016.99,315.40
2005-10-27 15:00,7.0,6.7,8.0,2958,1017.24,317.60
2005-10-27 16:00,7.7,5.9,7.2,2958,1017.18,318.20
2005-10-27 17:00,8.1,4.9,5.7,2950,1017.30,314.30
2005-10-27 18:00,8.4,3.7,4.4,2957,1017.61,293.30
2005-10-27 20:00,8.4,3.3,4.3,2957,1018.16,243.30
2005-10-27 21:00,8.5,4.3,5.8,2957,1018.95,249.80
2005-10-27 22:00,8.2,6.5,8.1,2957,1019.69,331.30
2005-10-27 23:00,7.9,6.4,7.4,2957,1020.48,332.60
2005-10-28 00:00,7.4,7.2,8.6,2957,1021.15,345.56
2005-10-28 01:00,7.2,6.6,7.7,2957,1021.95,344.18
2005-10-28 02:00,6.9,6.0,7.4,2957,1022.56,355.00
2005-10-28 03:00,6.8,5.8,7.1,2957,1022.99,3.22
2005-10-28 04:00,6.4,5.6,6.9,2957,1023.48,5.21
2005-10-28 05:00,6.2,6.4,8.0,2957,1024.03,11.60
2005-10-28 06:00,6.1,6.4,8.3,2957,1024.40,8.19
2005-10-28 07:00,5.9,5.5,6.7,2957,1024.58,7.25
2005-10-28 08:00,5.5,5.3,6.8,2957,1024.76,9.06
2005-10-28 09:00,5.2,5.2,6.2,2957,1025.07,23.26
2005-10-28 10:00,5.1,4.7,6.1,2957,1025.44,11.17
2005-10-28 11:00,5.0,4.1,5.8,2957,1025.86,22.45
2005-10-28 12:00,5.1,3.6,5.3,2957,1026.42,7.67
2005-10-28 13:00,5.3,3.3,6.0,2957,1027.09,347.49
2005-10-28 14:00,5.4,4.7,5.9,2958,1026.97,1.43
2005-10-28 15:00,5.4,5.2,6.6,2957,1026.78,3.29
2005-10-28 16:00,5.6,3.5,4.7,2957,1027.21,1.20
2005-10-28 17:00,5.8,5.3,7.0,2955,1026.42,343.87
2005-10-28 18:00,6.3,5.6,7.2,2675,1026.42,329.70
2005-10-28 19:00,6.1,4.5,5.9,2958,1026.11,337.10
2005-10-28 20:00,6.0,5.4,7.1,2551,1026.05,338.20
2005-10-28 21:00,5.6,4.2,6.0,2800,1025.86,329.60
2005-10-28 22:00,5.4,3.9,6.3,2957,1026.11,331.00
2005-10-28 23:00,5.4,3.3,4.6,2957,1026.42,325.80
2005-10-29 00:00,5.4,4.4,5.7,2957,1026.11,332.10
2005-10-29 01:00,5.4,6.2,7.4,2957,1025.93,346.20
2005-10-29 02:00,5.3,7.8,9.7,2957,1025.80,7.54
2005-10-29 03:00,4.9,7.9,9.5,2957,1025.38,7.14
2005-10-29 04:00,4.7,7.7,8.9,2957,1025.80,4.10
2005-10-29 05:00,4.6,8.2,9.2,2957,1025.01,3.18
2005-10-29 06:00,4.5,6.7,8.3,2957,1025.31,5.09
2005-10-29 07:00,4.5,7.1,8.7,2957,1024.21,14.62
2005-10-29 08:00,4.3,6.9,8.5,2957,1023.91,14.45
2005-10-29 09:00,4.0,7.2,8.9,2957,1023.36,15.63
2005-10-29 10:00,4.0,7.5,9.4,2957,1022.56,19.82
2005-10-29 11:00,4.1,6.8,8.0,2957,1022.50,21.97
2005-10-29 12:00,4.1,7.8,9.4,2957,1022.26,15.72
2005-10-29 13:00,4.0,6.7,8.0,2957,1022.07,18.84
2005-10-29 14:00,4.0,7.2,8.7,2957,1021.22,18.09
2005-10-29 15:00,3.8,7.4,8.7,2957,1020.91,9.05
2005-10-29 16:00,3.6,5.4,7.3,2936,1019.93,357.21
2005-10-29 17:00,3.6,4.5,6.3,2957,1018.52,349.86
2005-10-29 18:00,4.4,4.2,5.5,2957,1017.67,337.90
2005-10-29 19:00,4.7,3.6,5.3,2957,1016.93,302.30
2005-10-29 20:00,5.5,4.6,6.7,2957,1015.96,312.00
2005-10-29 21:00,6.1,6.6,7.8,2957,1015.10,301.70
2005-10-29 22:00,6.5,6.4,7.7,2957,1014.55,291.20
2005-10-29 23:00,6.7,5.8,6.9,2957,1014.24,293.70
2005-10-30 00:00,7.1,5.1,6.2,2957,1013.57,304.40
2005-10-30 01:00,7.4,6.7,7.7,2957,1013.14,334.40
2005-10-30 02:00,7.7,8.4,10.0,2957,1012.47,348.41
2005-10-30 03:00,7.5,7.9,9.7,2957,1012.16,348.71
2005-10-30 04:00,7.7,8.1,10.0,2957,1012.04,351.59
2005-10-30 05:00,7.7,7.8,9.6,2957,1011.86,348.17
2005-10-30 06:00,7.1,7.7,9.8,2957,1011.49,344.09
2005-10-30 07:00,6.6,8.3,12.6,2957,1011.24,340.90
2005-10-30 08:00,6.3,7.8,10.5,2957,1011.12,343.98
2005-10-30 09:00,6.0,6.1,8.7,2957,1011.06,330.20
2005-10-30 10:00,5.9,6.2,7.6,2957,1011.24,328.20
2005-10-30 11:00,5.9,6.7,7.9,2957,1011.55,333.00
2005-10-30 12:00,5.8,4.5,5.5,2957,1012.28,340.00
2005-10-30 14:00,7.7,6.2,7.8,2957,1012.77,333.80
2005-10-30 15:00,8.2,1.4,3.2,2957,1012.65,299.60
2005-10-30 16:00,9.8,2.8,4.1,2957,1012.47,265.20
2005-10-30 17:00,10.7,3.1,4.2,2957,1012.16,257.40
2005-10-30 18:00,10.7,5.1,6.8,2957,1012.22,245.40
2005-10-30 19:00,11.5,3.7,5.0,2952,1012.35,253.50
2005-10-30 20:00,12.7,5.5,6.6,2720,1012.71,295.30
2005-10-30 21:00,13.2,6.0,7.6,2654,1013.26,308.50
2005-10-30 22:00,13.0,7.0,8.1,2957,1014.00,301.70
2005-10-30 23:00,12.5,5.8,6.9,2957,1014.43,293.40
2005-10-31 00:00,11.6,5.3,6.1,2957,1014.61,279.70
2005-10-31 01:00,11.7,3.9,5.1,2957,1015.10,265.60
2005-10-31 02:00,11.3,3.4,4.0,2957,1015.47,264.20
2005-10-31 03:00,11.1,5.3,6.3,2957,1015.59,272.10
2005-10-31 04:00,11.0,5.5,6.3,2957,1016.02,266.20
2005-10-31 05:00,10.8,4.5,5.3,2957,1016.51,270.40
2005-10-31 06:00,10.8,2.5,3.1,2957,1016.87,254.00
2005-10-31 07:00,11.0,3.3,3.9,2957,1016.99,268.20
2005-10-31 08:00,10.6,2.6,3.3,2957,1016.99,239.00
2005-10-31 09:00,10.6,3.1,3.9,2957,1017.42,251.80
2005-10-31 10:00,10.6,4.3,4.9,2957,1017.61,246.70
2005-10-31 11:00,10.6,3.8,4.4,2957,1017.85,246.50
2005-10-31 12:00,10.7,5.7,7.1,2957,1018.40,260.80
2005-10-31 13:00,10.8,5.0,6.4,2660,1018.59,257.00
2005-10-31 14:00,10.8,3.0,3.7,2485,1018.28,244.50
2005-10-31 15:00,10.8,4.1,4.7,2746,1017.97,228.30
2005-10-31 16:00,10.7,3.1,4.0,2950,1017.36,238.30
2005-10-31 17:00,10.9,5.0,5.9,2943,1016.57,232.00
2005-10-31 18:00,11.0,4.3,5.6,2784,1015.89,222.90
2005-10-31 19:00,11.2,5.2,6.6,2946,1015.47,222.90